sat.trackr.live / text

‹ back to catalog

STARLINK-4188

NORAD 52843 · 2022-062P

PAYLOAD ACTIVE UNKNOWN

§ Identity

Operator
Country
US
Launch date
2022-06-17
Launch site
AFETR
Launch vehicle
Mass (kg)
RCS (m²)

Purposes: comms

External: N2YO · Heavens-Above · Gunter

§ Orbital elements

Epoch: 2026-09-19T22:12:27.808704Z

Period
94.01 min
Inclination
53.1592°
Eccentricity
0.0001021
Mean motion
15.31702630 rev/d
Perigee alt
470.0 km
Apogee alt
471.4 km
Semi-major
6,848.9 km
B*
-7.8184e-6
RAAN
231.5779°
Arg perigee
79.6042°
Mean anomaly
280.5074°
Rev number
23,525

§ Raw data

STARLINK-41881 52843U 22062P   26262.92532186 -.00000608  00000+0 -78184-5 0  99962 52843  53.1592 231.5779 0001021  79.6042 280.5074 15.31702630235256

JSON: /api/v1/satellites/52843 · /tle

For live sub-satellite position, see the globe view (requires WebGL).

§ Visibility from observer

Set your observer location to see the next 7 days of passes ≥ 10°. The values pass through the URL so the page stays shareable.

No JS? Fill the form by hand. The geolocation button needs JavaScript.